M I D A S
Marine Information and Data Acquisition System
Tripno 1329 of the Zeeleeuw from 2007-02-09 07:28:21 to 2007-02-09 17:44:42
Back to CruiseResearch ActivitiesStationsMapUnderway DataData graphs

EquipmentUnitsComments
TimeDGPSUTC
LatitudeDGPSDM.mWGS84
LongitudeDGPSDM.mWGS84
SpeedMeteo Stationm/sRelative wind speed
DirectionMeteo StationdegRelative wind direction
TemperatureMeteo Stationdeg CelciusAir temperature
PressureMeteo StationPaAtmospheric pressure
HumidityMeteo Station%Relative humidity
Missing or incorrect values are displayed as -999
Metereological data collected by the RV Zeeleeuw from 2007-02-09 07:11:29 to 2007-02-09 17:54:29
                                                                                    Next 1000 lines
Time Latitude Longitude Speed Direction Temperature Pressure Humidity
2007-02-09 07:11:38 51°13.598 2°56.095 2.6 26 5.7 100140 80
2007-02-09 07:11:44 51°13.598 2°56.093 2.7 55 5.7 100140 80
2007-02-09 07:11:49 51°13.599 2°56.092 2.8 19 5.7 100150 80
2007-02-09 07:11:54 51°13.599 2°56.089 2.8 57 5.7 100150 80
2007-02-09 07:11:59 51°13.6 2°56.087 3.3 26 5.7 100150 80
2007-02-09 07:12:03 51°13.601 2°56.084 4.4 55 5.7 100150 80
2007-02-09 07:12:09 51°13.602 2°56.079 3.5 21 5.7 100140 79
2007-02-09 07:12:14 51°13.603 2°56.075 3.7 56 5.7 100140 79
2007-02-09 07:12:20 51°13.604 2°56.069 4.5 25 5.7 100150 79
2007-02-09 07:12:26 51°13.606 2°56.062 3.3 56 5.7 100150 79
2007-02-09 07:12:32 51°13.608 2°56.055 4.3 24 5.7 100140 79
2007-02-09 07:12:37 51°13.609 2°56.048 4 49 5.7 100140 79
2007-02-09 07:12:41 51°13.611 2°56.043 3 23 5.7 100150 79
2007-02-09 07:12:47 51°13.614 2°56.033 4.4 50 5.7 100150 79
2007-02-09 07:12:52 51°13.616 2°56.025 4.9 20 5.7 100150 79
2007-02-09 07:12:58 51°13.619 2°56.014 5.3 54 5.7 100150 79
2007-02-09 07:13:02 51°13.621 2°56.007 4.5 21 5.7 100150 79
2007-02-09 07:13:07 51°13.624 2°55.997 4.8 51 5.7 100150 79
2007-02-09 07:13:12 51°13.627 2°55.987 5 24 5.6 100150 79
2007-02-09 07:13:17 51°13.63 2°55.977 3.8 56 5.6 100150 79
2007-02-09 07:13:23 51°13.634 2°55.965 3.4 26 5.6 100150 79
2007-02-09 07:13:27 51°13.636 2°55.956 4.6 58 5.6 100150 79
2007-02-09 07:13:32 51°13.64 2°55.947 4.4 22 5.6 100150 79
2007-02-09 07:13:37 51°13.643 2°55.937 4.5 52 5.6 100150 79
2007-02-09 07:13:42 51°13.646 2°55.927 4.3 24 5.6 100150 79
2007-02-09 07:13:47 51°13.649 2°55.918 4.6 56 5.6 100150 79
2007-02-09 07:13:52 51°13.652 2°55.909 4.3 25 5.6 100150 79
2007-02-09 07:13:56 51°13.654 2°55.902 2.4 52 5.6 100150 79
2007-02-09 07:14:02 51°13.658 2°55.891 2.5 20 5.6 100150 79
2007-02-09 07:14:07 51°13.66 2°55.883 3.8 51 5.6 100150 79
2007-02-09 07:14:12 51°13.663 2°55.874 3.9 26 5.6 100150 79
2007-02-09 07:14:16 51°13.666 2°55.868 5.1 56 5.6 100150 79
2007-02-09 07:14:22 51°13.669 2°55.858 4.5 21 5.6 100150 80
2007-02-09 07:14:27 51°13.671 2°55.85 3.5 52 5.6 100150 80
2007-02-09 07:14:32 51°13.674 2°55.843 3.7 24 5.6 100150 79
2007-02-09 07:14:37 51°13.676 2°55.835 3.5 52 5.6 100150 79
2007-02-09 07:14:42 51°13.678 2°55.828 3.8 26 5.6 100160 79
2007-02-09 07:14:47 51°13.68 2°55.821 3.4 50 5.6 100160 79
2007-02-09 07:14:52 51°13.683 2°55.814 4.2 26 5.6 100150 79
2007-02-09 07:14:57 51°13.684 2°55.807 3.6 57 5.6 100150 79
2007-02-09 07:15:02 51°13.686 2°55.8 2.4 24 5.6 100160 79
2007-02-09 07:15:07 51°13.688 2°55.794 2.4 51 5.6 100160 79
2007-02-09 07:15:12 51°13.689 2°55.788 2.3 20 5.6 100160 78
2007-02-09 07:15:17 51°13.691 2°55.781 3.1 55 5.6 100160 78
2007-02-09 07:15:21 51°13.692 2°55.776 3.5 19 5.6 100160 78
2007-02-09 07:15:27 51°13.693 2°55.769 2.8 51 5.6 100160 78
2007-02-09 07:15:31 51°13.694 2°55.765 3.3 20 5.6 100160 78
2007-02-09 07:15:36 51°13.694 2°55.759 3 58 5.6 100160 78
2007-02-09 07:15:41 51°13.695 2°55.753 2.6 20 5.7 100160 78
2007-02-09 07:15:47 51°13.695 2°55.746 3 56 5.7 100160 78
2007-02-09 07:15:52 51°13.696 2°55.741 2.8 18 5.7 100160 78
2007-02-09 07:15:57 51°13.696 2°55.736 2.3 53 5.7 100160 78
2007-02-09 07:16:02 51°13.697 2°55.732 2.2 26 5.7 100160 78
2007-02-09 07:16:07 51°13.697 2°55.729 1.9 54 5.7 100160 78
2007-02-09 07:16:12 51°13.697 2°55.726 2.2 269 5.7 100160 78
2007-02-09 07:16:17 51°13.697 2°55.725 1.9 56 5.7 100160 78
2007-02-09 07:16:21 51°13.697 2°55.723 1.5 27 5.7 100160 78
2007-02-09 07:16:26 51°13.697 2°55.722 1.5 307 5.7 100160 78
2007-02-09 07:16:31 51°13.697 2°55.721 1.5 270 5.7 100160 78
2007-02-09 07:16:36 51°13.697 2°55.721 1.2 304 5.7 100160 78
2007-02-09 07:16:41 51°13.698 2°55.721 1.8 258 5.7 100160 78
2007-02-09 07:16:46 51°13.699 2°55.721 1.6 311 5.7 100160 78
2007-02-09 07:16:51 51°13.699 2°55.722 1.6 254 5.7 100160 78
2007-02-09 07:16:56 51°13.701 2°55.722 1.8 309 5.7 100160 78
2007-02-09 07:17:01 51°13.703 2°55.723 1.7 21 5.7 100160 78
2007-02-09 07:17:06 51°13.704 2°55.724 2.2 304 5.7 100160 78
2007-02-09 07:17:10 51°13.706 2°55.725 1.9 25 5.7 100160 78
2007-02-09 07:17:16 51°13.709 2°55.725 3 311 5.7 100160 78
2007-02-09 07:17:21 51°13.712 2°55.725 3.7 24 5.6 100160 78
2007-02-09 07:17:25 51°13.714 2°55.725 3 304 5.6 100160 78
2007-02-09 07:17:30 51°13.717 2°55.725 3.2 321 5.7 100160 78
2007-02-09 07:17:35 51°13.721 2°55.724 3.5 325 5.7 100160 78
2007-02-09 07:17:40 51°13.724 2°55.722 3.8 328 5.6 100160 78
2007-02-09 07:17:45 51°13.729 2°55.719 4.7 329 5.6 100160 78
2007-02-09 07:17:50 51°13.734 2°55.716 4.7 330 5.6 100160 77
2007-02-09 07:17:55 51°13.739 2°55.712 5 331 5.6 100160 77
2007-02-09 07:18:00 51°13.745 2°55.707 4.9 331 5.6 100160 77
2007-02-09 07:18:05 51°13.751 2°55.701 5.3 330 5.6 100160 77
2007-02-09 07:18:10 51°13.758 2°55.695 5.6 331 5.6 100160 76
2007-02-09 07:18:14 51°13.764 2°55.69 5.8 332 5.6 100160 76
2007-02-09 07:18:19 51°13.771 2°55.683 6.3 333 5.6 100160 76
2007-02-09 07:18:24 51°13.779 2°55.676 6.1 331 5.6 100160 76
2007-02-09 07:18:29 51°13.788 2°55.669 6.1 332 5.6 100160 75
2007-02-09 07:18:34 51°13.797 2°55.662 5.8 331 5.6 100160 75
2007-02-09 07:18:39 51°13.806 2°55.655 6.2 332 5.6 100150 74
2007-02-09 07:18:44 51°13.815 2°55.648 6.3 332 5.6 100150 74
2007-02-09 07:18:49 51°13.825 2°55.641 6.7 332 5.6 100160 74
2007-02-09 07:18:54 51°13.835 2°55.634 6.7 331 5.6 100160 74
2007-02-09 07:18:58 51°13.843 2°55.628 6.5 332 5.6 100160 73
2007-02-09 07:19:03 51°13.853 2°55.62 6.6 329 5.6 100160 73
2007-02-09 07:19:09 51°13.865 2°55.611 6.7 331 5.6 100160 73
2007-02-09 07:19:13 51°13.873 2°55.605 6.5 331 5.6 100160 73
2007-02-09 07:19:19 51°13.886 2°55.596 6.5 329 5.6 100160 73
2007-02-09 07:19:24 51°13.896 2°55.588 6.7 332 5.6 100160 73
2007-02-09 07:19:29 51°13.907 2°55.58 6.8 331 5.6 100150 72
2007-02-09 07:19:34 51°13.917 2°55.572 6.9 330 5.6 100150 72
2007-02-09 07:19:39 51°13.928 2°55.564 6.6 329 5.6 100150 72
2007-02-09 07:19:44 51°13.939 2°55.556 6.7 330 5.6 100150 72
2007-02-09 07:19:48 51°13.948 2°55.55 7 329 5.6 100160 72
2007-02-09 07:19:53 51°13.958 2°55.542 7 329 5.6 100160 72
2007-02-09 07:19:59 51°13.971 2°55.532 6.6 328 5.6 100150 71
2007-02-09 07:20:04 51°13.982 2°55.525 6.6 331 5.6 100150 71
2007-02-09 07:20:08 51°13.991 2°55.518 6.4 330 5.6 100160 71
2007-02-09 07:20:14 51°14.004 2°55.509 7.2 329 5.6 100160 71
2007-02-09 07:20:19 51°14.015 2°55.502 7.5 329 5.6 100160 71
2007-02-09 07:20:24 51°14.026 2°55.495 7.3 330 5.6 100160 71
2007-02-09 07:20:29 51°14.037 2°55.487 7 330 5.6 100160 71
2007-02-09 07:20:34 51°14.049 2°55.48 7.3 331 5.6 100160 71
2007-02-09 07:20:38 51°14.057 2°55.473 7 330 5.6 100160 70
2007-02-09 07:20:44 51°14.071 2°55.464 7 331 5.6 100160 70
2007-02-09 07:20:49 51°14.082 2°55.456 7.1 330 5.6 100160 70
2007-02-09 07:20:53 51°14.091 2°55.449 7.4 332 5.6 100160 70
2007-02-09 07:20:59 51°14.105 2°55.439 7.7 332 5.6 100160 70
2007-02-09 07:21:04 51°14.117 2°55.43 8.2 331 5.6 100160 70
2007-02-09 07:21:10 51°14.132 2°55.419 8.2 332 5.6 100160 70
2007-02-09 07:21:15 51°14.144 2°55.409 7.9 333 5.6 100160 70
2007-02-09 07:21:21 51°14.159 2°55.396 8.2 333 5.7 100160 70
2007-02-09 07:21:26 51°14.172 2°55.384 8.1 333 5.7 100160 70
2007-02-09 07:21:32 51°14.186 2°55.37 8.4 334 5.7 100160 70
2007-02-09 07:21:37 51°14.198 2°55.356 8.1 281 5.7 100160 70
2007-02-09 07:21:42 51°14.21 2°55.342 8.9 333 5.7 100160 70
2007-02-09 07:21:47 51°14.221 2°55.327 8.6 334 5.7 100160 70
2007-02-09 07:21:52 51°14.232 2°55.311 8.9 334 5.7 100150 69
2007-02-09 07:21:57 51°14.243 2°55.294 8.8 335 5.7 100150 69
2007-02-09 07:22:02 51°14.253 2°55.277 8.3 334 5.7 100160 69
2007-02-09 07:22:07 51°14.263 2°55.258 8.4 336 5.7 100160 69
2007-02-09 07:22:12 51°14.272 2°55.239 7.6 335 5.7 100160 69
2007-02-09 07:22:17 51°14.281 2°55.22 8.5 336 5.7 100160 69
2007-02-09 07:22:22 51°14.29 2°55.2 8.2 337 5.7 100160 68
2007-02-09 07:22:27 51°14.299 2°55.18 8.4 336 5.7 100160 68
2007-02-09 07:22:32 51°14.307 2°55.16 8.6 337 5.7 100160 68
2007-02-09 07:22:36 51°14.315 2°55.144 8.9 336 5.7 100160 68
2007-02-09 07:22:41 51°14.324 2°55.124 8.8 336 5.7 100160 68
2007-02-09 07:22:46 51°14.333 2°55.104 8.5 336 5.7 100160 68
2007-02-09 07:22:51 51°14.342 2°55.083 9.4 336 5.7 100160 68
2007-02-09 07:22:55 51°14.35 2°55.068 8.2 336 5.7 100160 68
2007-02-09 07:23:00 51°14.36 2°55.047 8.8 335 5.7 100160 68
2007-02-09 07:23:05 51°14.371 2°55.028 9.1 333 5.7 100160 68
2007-02-09 07:23:10 51°14.383 2°55.01 9.2 333 5.8 100160 67
2007-02-09 07:23:14 51°14.393 2°54.996 9.5 333 5.8 100160 67
2007-02-09 07:23:19 51°14.406 2°54.979 9 332 5.8 100160 67
2007-02-09 07:23:24 51°14.42 2°54.964 9.1 333 5.8 100160 67
2007-02-09 07:23:29 51°14.435 2°54.949 9.1 332 5.8 100160 68
2007-02-09 07:23:34 51°14.45 2°54.934 9.3 331 5.8 100160 68
2007-02-09 07:23:39 51°14.466 2°54.921 9.3 331 5.8 100160 68
2007-02-09 07:23:44 51°14.481 2°54.909 9.5 331 5.8 100160 68
2007-02-09 07:23:48 51°14.494 2°54.9 10 329 5.8 100150 67
2007-02-09 07:23:54 51°14.514 2°54.887 9.7 329 5.8 100150 67
2007-02-09 07:23:58 51°14.528 2°54.88 9.4 329 5.8 100150 67
2007-02-09 07:24:04 51°14.548 2°54.87 9.2 328 5.8 100150 67
2007-02-09 07:24:08 51°14.562 2°54.863 9.4 330 5.8 100150 67
2007-02-09 07:24:14 51°14.582 2°54.853 10.4 329 5.8 100150 67
2007-02-09 07:24:18 51°14.596 2°54.846 9.9 331 5.8 100150 67
2007-02-09 07:24:24 51°14.616 2°54.836 9.1 332 5.8 100150 67
2007-02-09 07:24:28 51°14.63 2°54.829 9.4 331 5.8 100160 67
2007-02-09 07:24:33 51°14.647 2°54.819 9.9 332 5.8 100160 67
2007-02-09 07:24:38 51°14.664 2°54.81 10.1 331 5.9 100150 68
2007-02-09 07:24:44 51°14.684 2°54.798 9.3 331 5.9 100150 68
2007-02-09 07:24:49 51°14.701 2°54.789 9.2 330 5.9 100160 68
2007-02-09 07:24:53 51°14.715 2°54.781 9.8 332 5.9 100160 68
2007-02-09 07:24:58 51°14.732 2°54.771 10.6 331 5.9 100160 68
2007-02-09 07:25:04 51°14.752 2°54.76 10.2 332 5.9 100160 68
2007-02-09 07:25:08 51°14.766 2°54.753 9.6 332 5.9 100160 68
2007-02-09 07:25:13 51°14.783 2°54.743 9.9 332 5.9 100160 68
2007-02-09 07:25:18 51°14.8 2°54.733 9.6 330 5.9 100170 69
2007-02-09 07:25:24 51°14.82 2°54.722 9.6 332 5.9 100170 69
2007-02-09 07:25:28 51°14.834 2°54.714 9.9 331 6 100160 69
2007-02-09 07:25:33 51°14.851 2°54.705 9.9 330 6 100160 69
2007-02-09 07:25:38 51°14.868 2°54.696 9.5 332 5.9 100160 68
2007-02-09 07:25:44 51°14.889 2°54.685 10.1 332 5.9 100160 68
2007-02-09 07:25:48 51°14.902 2°54.678 10 331 5.9 100160 68
2007-02-09 07:25:53 51°14.919 2°54.669 10.1 332 5.9 100160 68
2007-02-09 07:25:58 51°14.937 2°54.66 10.2 331 5.9 100160 68
2007-02-09 07:26:04 51°14.957 2°54.649 9.4 330 5.9 100160 68
2007-02-09 07:26:09 51°14.974 2°54.64 9.7 332 5.9 100160 68
2007-02-09 07:26:13 51°14.988 2°54.632 9.9 331 5.9 100160 68
2007-02-09 07:26:18 51°15.005 2°54.623 9.8 331 5.9 100150 68
2007-02-09 07:26:24 51°15.025 2°54.612 10.5 331 5.9 100150 68
2007-02-09 07:26:28 51°15.039 2°54.606 10.3 330 5.9 100160 68
2007-02-09 07:26:34 51°15.06 2°54.597 9.7 330 5.9 100160 68
2007-02-09 07:26:38 51°15.073 2°54.591 9.8 329 5.9 100160 69
2007-02-09 07:26:44 51°15.094 2°54.583 9.9 332 5.9 100160 69
2007-02-09 07:26:48 51°15.108 2°54.577 10.3 331 6 100160 69
2007-02-09 07:26:54 51°15.129 2°54.57 9.9 330 6 100160 69
2007-02-09 07:26:58 51°15.143 2°54.566 11 330 6 100150 69
2007-02-09 07:27:04 51°15.164 2°54.558 10.5 329 6 100150 69
2007-02-09 07:27:08 51°15.178 2°54.553 10.8 329 6 100170 69
2007-02-09 07:27:13 51°15.195 2°54.547 10.2 329 6 100170 69
2007-02-09 07:27:18 51°15.213 2°54.541 11.2 329 6 100170 69
2007-02-09 07:27:24 51°15.234 2°54.535 10.6 328 6 100170 69
2007-02-09 07:27:28 51°15.248 2°54.531 11.3 328 5.9 100170 69
2007-02-09 07:27:33 51°15.266 2°54.527 10.5 328 5.9 100170 69
2007-02-09 07:27:38 51°15.284 2°54.522 9.9 327 6 100160 69
2007-02-09 07:27:44 51°15.305 2°54.516 9.9 329 6 100160 69
2007-02-09 07:27:48 51°15.319 2°54.513 11.2 329 5.9 100160 68
2007-02-09 07:27:53 51°15.336 2°54.509 10.8 329 5.9 100160 68
2007-02-09 07:27:58 51°15.354 2°54.504 10.5 330 6 100160 68
2007-02-09 07:28:04 51°15.375 2°54.499 10.4 329 6 100160 68
2007-02-09 07:28:08 51°15.389 2°54.495 10.1 331 6 100160 68
2007-02-09 07:28:13 51°15.406 2°54.49 10.5 331 6 100160 68
2007-02-09 07:28:18 51°15.424 2°54.486 10 332 6 100160 68
2007-02-09 07:28:24 51°15.445 2°54.48 9.7 332 6 100160 68
2007-02-09 07:28:29 51°15.463 2°54.476 10.4 331 6 100170 68
2007-02-09 07:28:33 51°15.477 2°54.473 10.3 334 6 100170 68
2007-02-09 07:28:38 51°15.494 2°54.468 10.8 333 6 100160 68
2007-02-09 07:28:44 51°15.515 2°54.462 10 334 6 100160 68
2007-02-09 07:28:48 51°15.529 2°54.459 10.5 333 6 100170 68
2007-02-09 07:28:54 51°15.55 2°54.452 10.1 334 6 100170 68
2007-02-09 07:28:58 51°15.564 2°54.449 10.6 334 6 100160 68
2007-02-09 07:29:04 51°15.585 2°54.443 9.9 334 6 100160 68
2007-02-09 07:29:08 51°15.599 2°54.439 10.4 335 6 100170 68
2007-02-09 07:29:13 51°15.617 2°54.434 10.4 335 6 100170 68
2007-02-09 07:29:18 51°15.634 2°54.43 10.9 333 6 100160 68
2007-02-09 07:29:24 51°15.655 2°54.426 10.3 334 6 100160 68
2007-02-09 07:29:28 51°15.669 2°54.424 9.8 334 6 100160 68
2007-02-09 07:29:33 51°15.687 2°54.42 9.3 334 6 100160 68
2007-02-09 07:29:38 51°15.705 2°54.417 10.5 333 6 100170 68
2007-02-09 07:29:44 51°15.726 2°54.412 10.4 334 6 100170 68
2007-02-09 07:29:48 51°15.74 2°54.41 10.9 336 6 100160 68
2007-02-09 07:29:53 51°15.757 2°54.406 10.6 335 6 100160 68
2007-02-09 07:29:58 51°15.774 2°54.402 10.7 335 6 100170 69
2007-02-09 07:30:04 51°15.795 2°54.398 10.8 334 6 100170 69
2007-02-09 07:30:08 51°15.808 2°54.394 11.1 336 6 100160 69
2007-02-09 07:30:13 51°15.824 2°54.389 9.9 335 6 100160 69
2007-02-09 07:30:18 51°15.84 2°54.382 10.4 337 6 100160 69
2007-02-09 07:30:24 51°15.858 2°54.372 9.5 337 6 100160 69
2007-02-09 07:30:28 51°15.87 2°54.364 9.5 337 6 100160 69
2007-02-09 07:30:34 51°15.887 2°54.351 9.1 338 6 100160 69
2007-02-09 07:30:38 51°15.898 2°54.341 9.5 337 5.9 100160 68
2007-02-09 07:30:44 51°15.915 2°54.325 9 338 5.9 100160 68
2007-02-09 07:30:48 51°15.926 2°54.314 8.9 338 5.9 100160 68
2007-02-09 07:30:54 51°15.942 2°54.298 10.2 340 5.9 100160 68
2007-02-09 07:30:58 51°15.952 2°54.286 9.7 341 5.9 100160 68
2007-02-09 07:31:04 51°15.968 2°54.27 9.2 340 5.9 100160 68
2007-02-09 07:31:08 51°15.978 2°54.258 8.8 340 5.9 100160 68
2007-02-09 07:31:14 51°15.993 2°54.242 8.5 340 5.9 100160 68
2007-02-09 07:31:18 51°16.002 2°54.232 7.7 342 5.9 100170 68
2007-02-09 07:31:24 51°16.014 2°54.217 8.1 342 5.9 100170 68
2007-02-09 07:31:28 51°16.023 2°54.209 7.2 342 5.9 100160 68
2007-02-09 07:31:33 51°16.032 2°54.197 6.6 342 5.9 100160 68
2007-02-09 07:31:38 51°16.042 2°54.188 6.3 341 5.9 100170 68
2007-02-09 07:31:44 51°16.053 2°54.179 6.8 340 5.9 100170 68
2007-02-09 07:31:48 51°16.06 2°54.173 6.6 339 5.9 100170 68
2007-02-09 07:31:53 51°16.069 2°54.168 6.6 339 5.9 100170 68
2007-02-09 07:31:58 51°16.078 2°54.165 6.3 337 5.9 100170 67
2007-02-09 07:32:04 51°16.088 2°54.163 6.4 336 5.9 100170 67
2007-02-09 07:32:09 51°16.096 2°54.163 6.6 333 5.9 100170 67
2007-02-09 07:32:13 51°16.102 2°54.164 5.6 331 5.9 100170 67
2007-02-09 07:32:18 51°16.109 2°54.167 6.3 329 5.9 100170 67
2007-02-09 07:32:24 51°16.116 2°54.171 6.7 304 5.9 100170 67
2007-02-09 07:32:28 51°16.121 2°54.174 5.7 325 5.9 100170 67
2007-02-09 07:32:33 51°16.126 2°54.179 5.7 303 5.9 100170 67
2007-02-09 07:32:38 51°16.132 2°54.185 5.7 326 5.9 100170 67
2007-02-09 07:32:44 51°16.138 2°54.192 6.2 325 5.9 100170 67
2007-02-09 07:32:48 51°16.142 2°54.196 6.3 328 5.9 100170 67
2007-02-09 07:32:54 51°16.149 2°54.202 6 331 5.9 100170 67
2007-02-09 07:32:58 51°16.153 2°54.206 6.2 329 5.9 100170 67
2007-02-09 07:33:04 51°16.159 2°54.212 6.4 330 5.9 100170 67
2007-02-09 07:33:08 51°16.164 2°54.216 6.2 329 5.9 100170 68
2007-02-09 07:33:14 51°16.17 2°54.222 6.5 329 5.9 100170 68
2007-02-09 07:33:18 51°16.175 2°54.225 6.7 329 5.9 100170 67
2007-02-09 07:33:24 51°16.181 2°54.231 6.2 328 5.9 100170 67
2007-02-09 07:33:29 51°16.187 2°54.235 6.1 329 5.9 100170 67
2007-02-09 07:33:33 51°16.191 2°54.239 6.4 328 5.9 100170 67
2007-02-09 07:33:38 51°16.197 2°54.243 6.6 329 5.9 100170 67
2007-02-09 07:33:44 51°16.203 2°54.249 5.8 329 5.9 100170 67
2007-02-09 07:33:48 51°16.207 2°54.252 6.2 328 5.9 100170 68
2007-02-09 07:33:53 51°16.213 2°54.258 6.2 329 5.9 100170 68
2007-02-09 07:33:58 51°16.218 2°54.262 6 327 5.9 100170 68
2007-02-09 07:34:04 51°16.224 2°54.269 5.7 328 5.9 100170 68
2007-02-09 07:34:08 51°16.228 2°54.273 5.8 327 5.9 100170 68
2007-02-09 07:34:13 51°16.233 2°54.278 5.9 325 5.9 100170 68
2007-02-09 07:34:18 51°16.239 2°54.283 6.3 330 5.9 100170 69
2007-02-09 07:34:24 51°16.244 2°54.289 6.2 328 5.9 100170 69
2007-02-09 07:34:28 51°16.248 2°54.294 6.5 328 5.9 100170 69
2007-02-09 07:34:33 51°16.253 2°54.298 6.5 329 5.9 100170 69
2007-02-09 07:34:38 51°16.257 2°54.303 6.3 327 6 100170 69
2007-02-09 07:34:44 51°16.263 2°54.308 5.9 328 6 100170 69
2007-02-09 07:34:48 51°16.266 2°54.311 6 328 5.9 100170 69
2007-02-09 07:34:53 51°16.27 2°54.315 5 330 5.9 100170 69
2007-02-09 07:34:58 51°16.273 2°54.319 5.2 327 5.9 100170 69
2007-02-09 07:35:04 51°16.276 2°54.323 4.9 305 5.9 100170 69
2007-02-09 07:35:08 51°16.278 2°54.324 4.7 328 5.9 100170 68
2007-02-09 07:35:14 51°16.281 2°54.328 4.7 305 5.9 100170 68
2007-02-09 07:35:18 51°16.282 2°54.329 4.2 322 5.9 100170 68
2007-02-09 07:35:24 51°16.283 2°54.332 4.2 308 5.9 100170 68
2007-02-09 07:35:28 51°16.284 2°54.333 4 24 5.9 100170 68
2007-02-09 07:35:34 51°16.285 2°54.333 4 305 5.9 100170 68
2007-02-09 07:35:38 51°16.284 2°54.335 4.3 27 5.9 100180 67
2007-02-09 07:35:44 51°16.285 2°54.335 4.5 304 5.9 100180 67
2007-02-09 07:35:49 51°16.285 2°54.336 3.9 26 5.9 100180 68
2007-02-09 07:35:53 51°16.286 2°54.337 4.4 303 5.9 100180 68
2007-02-09 07:35:58 51°16.286 2°54.338 4.2 24 5.9 100180 68
2007-02-09 07:36:04 51°16.286 2°54.339 4.2 302 5.9 100180 68
2007-02-09 07:36:08 51°16.286 2°54.34 4.2 21 5.9 100180 69
2007-02-09 07:36:13 51°16.286 2°54.341 3.8 303 5.9 100180 69
2007-02-09 07:36:18 51°16.287 2°54.342 3.6 19 5.9 100180 69
2007-02-09 07:36:24 51°16.286 2°54.343 4.4 311 5.9 100180 69
2007-02-09 07:36:28 51°16.286 2°54.344 3.2 25 5.9 100180 69
2007-02-09 07:36:33 51°16.286 2°54.345 3.3 302 5.9 100180 69
2007-02-09 07:36:38 51°16.286 2°54.346 3.8 23 5.9 100180 69
2007-02-09 07:36:44 51°16.286 2°54.347 4.1 303 5.9 100180 69
2007-02-09 07:36:48 51°16.286 2°54.348 4.1 23 5.9 100180 70
2007-02-09 07:36:53 51°16.285 2°54.349 3.9 303 5.9 100180 70
2007-02-09 07:36:58 51°16.286 2°54.35 4.2 248 5.9 100190 70
2007-02-09 07:37:04 51°16.285 2°54.351 4.4 308 5.9 100190 70
2007-02-09 07:37:09 51°16.285 2°54.353 4 251 5.9 100180 70
2007-02-09 07:37:13 51°16.285 2°54.353 3.5 303 5.9 100180 70
2007-02-09 07:37:18 51°16.284 2°54.354 3.5 249 5.9 100180 71
2007-02-09 07:37:24 51°16.284 2°54.356 3.2 308 5.9 100180 71
2007-02-09 07:37:28 51°16.284 2°54.356 4.3 251 6 100180 71
2007-02-09 07:37:34 51°16.283 2°54.357 3.9 309 6 100180 71
2007-02-09 07:37:38 51°16.283 2°54.358 3.5 252 5.9 100190 71
2007-02-09 07:37:44 51°16.283 2°54.36 3.7 305 5.9 100190 71
2007-02-09 07:37:48 51°16.283 2°54.36 3.5 254 5.9 100180 70
2007-02-09 07:37:53 51°16.282 2°54.361 3.2 309 5.9 100180 70
2007-02-09 07:37:58 51°16.282 2°54.362 4.2 249 5.9 100190 70
2007-02-09 07:38:04 51°16.281 2°54.363 3.5 310 5.9 100190 70
2007-02-09 07:38:08 51°16.281 2°54.364 3.6 249 5.9 100180 70
2007-02-09 07:38:13 51°16.281 2°54.365 3.3 310 5.9 100180 70
2007-02-09 07:38:18 51°16.28 2°54.366 4 253 5.9 100190 70
2007-02-09 07:38:24 51°16.28 2°54.368 2.8 304 5.9 100190 70
2007-02-09 07:38:28 51°16.279 2°54.368 3.4 22 5.9 100190 71
2007-02-09 07:38:33 51°16.279 2°54.369 2.9 304 5.9 100190 71
2007-02-09 07:38:38 51°16.279 2°54.37 4.2 248 5.9 100180 71
2007-02-09 07:38:44 51°16.278 2°54.372 3.6 304 5.9 100180 71
2007-02-09 07:38:48 51°16.278 2°54.372 4.3 19 5.9 100190 71
2007-02-09 07:38:53 51°16.278 2°54.374 3.5 309 5.9 100190 71
2007-02-09 07:38:58 51°16.277 2°54.375 3.2 20 5.9 100180 71
2007-02-09 07:39:04 51°16.277 2°54.375 3.3 304 5.9 100180 71
2007-02-09 07:39:08 51°16.276 2°54.376 4.1 249 5.9 100180 71
2007-02-09 07:39:13 51°16.276 2°54.376 3.4 307 5.9 100180 71
2007-02-09 07:39:18 51°16.276 2°54.376 3.1 252 5.9 100180 71
2007-02-09 07:39:24 51°16.275 2°54.376 3.6 304 5.9 100180 71
2007-02-09 07:39:29 51°16.275 2°54.375 3.6 254 5.9 100190 71
2007-02-09 07:39:33 51°16.275 2°54.374 3.2 304 5.9 100190 71
2007-02-09 07:39:38 51°16.275 2°54.373 3.3 254 5.9 100190 71
2007-02-09 07:39:44 51°16.274 2°54.372 3 308 5.9 100190 71
2007-02-09 07:39:48 51°16.274 2°54.372 3.4 254 5.9 100190 70
2007-02-09 07:39:54 51°16.273 2°54.371 3.7 307 5.9 100190 70
2007-02-09 07:39:58 51°16.273 2°54.37 3.6 258 5.9 100190 70
2007-02-09 07:40:04 51°16.273 2°54.37 3.8 305 5.9 100190 70
2007-02-09 07:40:08 51°16.272 2°54.369 4.2 257 5.9 100190 70
2007-02-09 07:40:14 51°16.272 2°54.368 3.7 310 5.9 100190 70
2007-02-09 07:40:18 51°16.272 2°54.368 4.4 255 5.9 100190 69
2007-02-09 07:40:24 51°16.271 2°54.367 4.5 310 5.9 100190 69
2007-02-09 07:40:28 51°16.271 2°54.367 4.4 257 5.9 100190 69
2007-02-09 07:40:33 51°16.271 2°54.366 4.3 309 5.9 100190 69
2007-02-09 07:40:38 51°16.27 2°54.366 3.8 257 5.9 100190 69
2007-02-09 07:40:44 51°16.27 2°54.365 4 305 5.9 100190 69
2007-02-09 07:40:49 51°16.269 2°54.365 4.4 258 5.9 100190 69
2007-02-09 07:40:53 51°16.269 2°54.364 4 305 5.9 100190 69
2007-02-09 07:40:58 51°16.269 2°54.364 3.8 256 5.9 100190 69
2007-02-09 07:41:04 51°16.269 2°54.363 3.6 310 5.9 100190 69
2007-02-09 07:41:08 51°16.268 2°54.363 3.8 259 5.9 100190 69
2007-02-09 07:41:13 51°16.268 2°54.363 4.7 309 5.9 100190 69
2007-02-09 07:41:18 51°16.267 2°54.363 4.9 257 5.9 100190 69
2007-02-09 07:41:24 51°16.267 2°54.363 3.9 311 5.9 100190 69
2007-02-09 07:41:28 51°16.266 2°54.362 4.5 258 5.9 100190 69
2007-02-09 07:41:34 51°16.266 2°54.362 3.2 307 5.9 100190 69
2007-02-09 07:41:38 51°16.266 2°54.361 3.4 259 5.9 100190 70
2007-02-09 07:41:44 51°16.265 2°54.36 3.4 305 5.9 100190 70
2007-02-09 07:41:48 51°16.265 2°54.359 3.8 260 5.9 100190 70
2007-02-09 07:41:54 51°16.265 2°54.357 3 304 5.9 100190 70
2007-02-09 07:41:58 51°16.265 2°54.355 2.6 263 5.9 100190 70
2007-02-09 07:42:04 51°16.265 2°54.353 2.9 303 5.9 100190 70
2007-02-09 07:42:09 51°16.265 2°54.351 4.3 269 5.9 100180 70
2007-02-09 07:42:14 51°16.266 2°54.348 4.2 302 5.9 100180 70
2007-02-09 07:42:18 51°16.266 2°54.346 4.5 269 5.9 100190 70
2007-02-09 07:42:24 51°16.267 2°54.342 3.9 309 5.9 100190 70
2007-02-09 07:42:28 51°16.268 2°54.341 3.1 267 5.9 100190 70
2007-02-09 07:42:34 51°16.268 2°54.337 4.1 280 5.9 100190 70
2007-02-09 07:42:39 51°16.269 2°54.335 4.3 268 5.9 100190 70
2007-02-09 07:42:44 51°16.269 2°54.333 4 310 5.9 100190 70
2007-02-09 07:42:48 51°16.27 2°54.331 3.5 267 5.9 100190 69
2007-02-09 07:42:53 51°16.27 2°54.329 4 308 5.9 100190 69
2007-02-09 07:42:59 51°16.271 2°54.327 4.9 23 5.9 100190 69
2007-02-09 07:43:04 51°16.271 2°54.326 4.4 313 5.9 100190 69
2007-02-09 07:43:08 51°16.272 2°54.324 3.7 270 5.9 100190 69
2007-02-09 07:43:13 51°16.272 2°54.323 3.7 315 5.9 100190 69
2007-02-09 07:43:18 51°16.272 2°54.322 3.4 269 5.9 100190 69
2007-02-09 07:43:24 51°16.273 2°54.32 4.4 310 5.9 100190 69
2007-02-09 07:43:28 51°16.273 2°54.319 3.2 23 5.9 100190 68
2007-02-09 07:43:33 51°16.273 2°54.318 3.7 58 5.9 100190 68
2007-02-09 07:43:38 51°16.274 2°54.317 3.4 270 5.8 100190 68
2007-02-09 07:43:44 51°16.274 2°54.315 3.5 59 5.8 100190 68
2007-02-09 07:43:49 51°16.274 2°54.314 3.1 268 5.8 100180 68
2007-02-09 07:43:53 51°16.275 2°54.313 4.3 302 5.8 100180 68
2007-02-09 07:43:58 51°16.275 2°54.312 4.4 270 5.8 100190 68
2007-02-09 07:44:04 51°16.275 2°54.311 3.5 306 5.8 100190 68
2007-02-09 07:44:09 51°16.275 2°54.31 4.1 270 5.8 100190 68
2007-02-09 07:44:13 51°16.275 2°54.309 4 307 5.8 100190 68
2007-02-09 07:44:18 51°16.276 2°54.308 4.2 269 5.8 100190 68
2007-02-09 07:44:24 51°16.276 2°54.307 3.9 304 5.8 100190 68
2007-02-09 07:44:29 51°16.276 2°54.306 3.8 268 5.8 100190 68
2007-02-09 07:44:33 51°16.276 2°54.305 4 283 5.8 100190 68
2007-02-09 07:44:38 51°16.276 2°54.305 3.4 268 5.8 100190 68
2007-02-09 07:44:44 51°16.276 2°54.303 3.7 307 5.8 100190 68
2007-02-09 07:44:49 51°16.276 2°54.303 3.2 267 5.8 100190 68
2007-02-09 07:44:53 51°16.276 2°54.302 3.8 308 5.8 100190 68
2007-02-09 07:44:58 51°16.276 2°54.302 3.1 267 5.8 100180 68
2007-02-09 07:45:04 51°16.275 2°54.301 4.4 303 5.8 100180 68
2007-02-09 07:45:08 51°16.275 2°54.301 3.6 269 5.8 100190 68
2007-02-09 07:45:13 51°16.275 2°54.301 3.7 305 5.8 100190 68
2007-02-09 07:45:18 51°16.274 2°54.301 3.2 268 5.8 100190 68
2007-02-09 07:45:24 51°16.273 2°54.301 4.1 302 5.8 100190 68
2007-02-09 07:45:28 51°16.273 2°54.301 4.2 267 5.8 100190 69
2007-02-09 07:45:33 51°16.272 2°54.301 3.8 309 5.8 100190 69
2007-02-09 07:45:39 51°16.272 2°54.301 3.3 267 5.8 100190 69
2007-02-09 07:45:44 51°16.271 2°54.3 3.9 305 5.8 100190 69
2007-02-09 07:45:48 51°16.271 2°54.3 4.2 269 5.8 100190 69
2007-02-09 07:45:53 51°16.27 2°54.3 3.5 307 5.8 100190 69
2007-02-09 07:45:58 51°16.269 2°54.3 3.5 25 5.8 100190 69
2007-02-09 07:46:04 51°16.268 2°54.3 3.6 304 5.8 100190 69
2007-02-09 07:46:08 51°16.268 2°54.301 4.1 269 5.8 100190 69
2007-02-09 07:46:14 51°16.267 2°54.301 3.9 307 5.8 100190 69
2007-02-09 07:46:18 51°16.267 2°54.301 3.9 270 5.8 100190 69
2007-02-09 07:46:24 51°16.266 2°54.301 3.7 311 5.8 100190 69
2007-02-09 07:46:28 51°16.265 2°54.302 3.2 269 5.8 100190 68
2007-02-09 07:46:34 51°16.264 2°54.301 3.2 85 5.8 100190 68
2007-02-09 07:46:38 51°16.264 2°54.302 3.9 329 5.8 100190 69
2007-02-09 07:46:44 51°16.263 2°54.302 4.1 310 5.8 100190 69
2007-02-09 07:46:48 51°16.262 2°54.302 4 23 5.8 100190 68
2007-02-09 07:46:54 51°16.262 2°54.303 3.4 313 5.8 100190 68
2007-02-09 07:46:58 51°16.261 2°54.303 3.7 270 5.8 100190 68
2007-02-09 07:47:04 51°16.26 2°54.303 3.4 307 5.8 100190 68
2007-02-09 07:47:08 51°16.26 2°54.303 2.8 269 5.8 100190 68
2007-02-09 07:47:14 51°16.259 2°54.303 3.9 309 5.8 100190 68
2007-02-09 07:47:18 51°16.258 2°54.304 4 268 5.8 100190 68
2007-02-09 07:47:24 51°16.257 2°54.304 4.4 59 5.8 100190 68
2007-02-09 07:47:28 51°16.257 2°54.304 4.1 266 5.8 100190 68
2007-02-09 07:47:33 51°16.256 2°54.305 3.1 286 5.8 100190 68
2007-02-09 07:47:38 51°16.255 2°54.305 3.3 266 5.8 100190 68
2007-02-09 07:47:44 51°16.254 2°54.305 3.1 306 5.8 100190 68
2007-02-09 07:47:48 51°16.254 2°54.306 2.9 266 5.8 100190 68
2007-02-09 07:47:53 51°16.253 2°54.306 2.6 304 5.8 100190 68
2007-02-09 07:47:58 51°16.252 2°54.306 2.8 264 5.8 100200 68
2007-02-09 07:48:04 51°16.251 2°54.307 3.4 311 5.8 100200 68
2007-02-09 07:48:08 51°16.25 2°54.307 2.6 270 5.8 100200 68
2007-02-09 07:48:13 51°16.25 2°54.308 3.3 310 5.8 100200 68
2007-02-09 07:48:18 51°16.249 2°54.308 2.9 265 5.8 100200 68
2007-02-09 07:48:24 51°16.248 2°54.308 2.7 302 5.8 100200 68
2007-02-09 07:48:29 51°16.247 2°54.309 3.4 268 5.8 100200 68
2007-02-09 07:48:34 51°16.246 2°54.309 2.9 279 5.8 100200 68
2007-02-09 07:48:38 51°16.246 2°54.31 3.1 266 5.8 100200 68
2007-02-09 07:48:44 51°16.245 2°54.31 2.8 303 5.8 100200 68
2007-02-09 07:48:48 51°16.244 2°54.311 2.4 265 5.8 100200 67
2007-02-09 07:48:54 51°16.243 2°54.311 3.4 304 5.8 100200 67
2007-02-09 07:48:58 51°16.243 2°54.312 1.9 264 5.8 100210 67
2007-02-09 07:49:04 51°16.242 2°54.312 2.3 310 5.8 100210 67
2007-02-09 07:49:08 51°16.241 2°54.312 2.9 267 5.8 100200 67
2007-02-09 07:49:14 51°16.24 2°54.313 2.9 306 5.8 100200 67
2007-02-09 07:49:18 51°16.24 2°54.313 2.8 266 5.8 100200 67
2007-02-09 07:49:24 51°16.239 2°54.313 2.3 305 5.8 100200 67
2007-02-09 07:49:28 51°16.238 2°54.314 1.9 265 5.8 100200 68
2007-02-09 07:49:34 51°16.237 2°54.314 2.5 309 5.8 100200 68
2007-02-09 07:49:38 51°16.236 2°54.315 2.1 264 5.8 100200 68
2007-02-09 07:49:44 51°16.235 2°54.315 2.2 304 5.8 100200 68
2007-02-09 07:49:48 51°16.234 2°54.316 2.1 266 5.8 100200 68
2007-02-09 07:49:53 51°16.233 2°54.316 2.3 306 5.8 100200 68
2007-02-09 07:49:58 51°16.233 2°54.317 2.3 264 5.8 100210 68
2007-02-09 07:50:04 51°16.232 2°54.317 2.8 304 5.8 100210 68
2007-02-09 07:50:08 51°16.231 2°54.318 2.4 266 5.8 100200 68
2007-02-09 07:50:13 51°16.23 2°54.318 3.6 304 5.8 100200 68
2007-02-09 07:50:18 51°16.229 2°54.319 2 266 5.8 100200 68
2007-02-09 07:50:24 51°16.228 2°54.319 2.3 309 5.8 100200 68
2007-02-09 07:50:28 51°16.227 2°54.32 3 267 5.8 100210 68
2007-02-09 07:50:34 51°16.226 2°54.32 2.6 281 5.8 100210 68
2007-02-09 07:50:38 51°16.226 2°54.321 1.9 264 5.8 100210 68
2007-02-09 07:50:44 51°16.225 2°54.321 2.7 310 5.8 100210 68
2007-02-09 07:50:48 51°16.224 2°54.322 2.3 266 5.8 100210 68
2007-02-09 07:50:54 51°16.223 2°54.322 2.4 303 5.8 100210 68
2007-02-09 07:50:58 51°16.222 2°54.323 2.9 267 5.8 100210 68
2007-02-09 07:51:04 51°16.221 2°54.323 2.2 311 5.8 100210 68
2007-02-09 07:51:08 51°16.221 2°54.324 2 265 5.8 100210 68
2007-02-09 07:51:14 51°16.22 2°54.324 2.1 307 5.8 100210 68
2007-02-09 07:51:18 51°16.219 2°54.325 2.4 267 5.8 100210 68
2007-02-09 07:51:24 51°16.218 2°54.325 2.2 304 5.8 100210 68
2007-02-09 07:51:28 51°16.217 2°54.326 2.6 267 5.8 100210 67
2007-02-09 07:51:34 51°16.216 2°54.326 2.7 306 5.8 100210 67
2007-02-09 07:51:38 51°16.215 2°54.327 2.3 264 5.8 100210 67
2007-02-09 07:51:44 51°16.214 2°54.327 2.4 306 5.8 100210 67
2007-02-09 07:51:48 51°16.214 2°54.327 2.2 266 5.8 100210 67
2007-02-09 07:51:53 51°16.213 2°54.327 2.2 308 5.8 100210 67
2007-02-09 07:51:58 51°16.213 2°54.327 2.4 266 5.8 100210 67
2007-02-09 07:52:04 51°16.212 2°54.327 2.8 306 5.8 100210 67
2007-02-09 07:52:09 51°16.212 2°54.326 2.7 268 5.8 100210 67
2007-02-09 07:52:13 51°16.212 2°54.326 2.3 307 5.8 100210 67
2007-02-09 07:52:18 51°16.211 2°54.325 2.4 267 5.8 100210 67
2007-02-09 07:52:24 51°16.211 2°54.324 2.4 55 5.8 100210 67
2007-02-09 07:52:28 51°16.211 2°54.323 2.2 29 5.8 100210 67
2007-02-09 07:52:33 51°16.212 2°54.322 2.8 77 5.8 100210 67
2007-02-09 07:52:38 51°16.212 2°54.32 3 26 5.8 100210 67
2007-02-09 07:52:44 51°16.212 2°54.318 2.4 49 5.8 100210 67
2007-02-09 07:52:48 51°16.213 2°54.317 3.2 19 5.8 100210 68
2007-02-09 07:52:54 51°16.214 2°54.314 3.6 55 5.8 100210 68
2007-02-09 07:52:59 51°16.215 2°54.311 3.5 17 5.8 100210 68
2007-02-09 07:53:04 51°16.216 2°54.308 3.1 51 5.8 100210 68
2007-02-09 07:53:10 51°16.218 2°54.305 3.5 24 5.8 100210 68
2007-02-09 07:53:15 51°16.221 2°54.302 3.9 56 5.8 100210 68
2007-02-09 07:53:21 51°16.223 2°54.298 4.2 24 5.8 100210 68
2007-02-09 07:53:26 51°16.226 2°54.295 4.1 56 5.8 100210 68
2007-02-09 07:53:32 51°16.229 2°54.29 3.4 19 5.8 100220 68
2007-02-09 07:53:37 51°16.233 2°54.287 3.9 49 5.8 100220 68
2007-02-09 07:53:42 51°16.236 2°54.283 4.5 27 5.8 100210 68
2007-02-09 07:53:47 51°16.24 2°54.279 3.5 52 5.8 100210 68
2007-02-09 07:53:52 51°16.244 2°54.276 3.7 27 5.8 100210 68
2007-02-09 07:53:57 51°16.247 2°54.273 3.7 52 5.8 100210 68
2007-02-09 07:54:02 51°16.251 2°54.27 4.7 20 5.8 100210 67
2007-02-09 07:54:07 51°16.254 2°54.267 4.1 57 5.8 100210 67
2007-02-09 07:54:12 51°16.257 2°54.264 3.9 23 5.8 100220 67
2007-02-09 07:54:17 51°16.26 2°54.263 3.3 55 5.8 100220 67
2007-02-09 07:54:22 51°16.262 2°54.26 3.3 20 5.8 100210 67
2007-02-09 07:54:27 51°16.264 2°54.259 3.8 57 5.8 100210 67
2007-02-09 07:54:32 51°16.265 2°54.258 3.5 26 5.8 100220 67
2007-02-09 07:54:36 51°16.266 2°54.257 3.3 78 5.8 100220 67
2007-02-09 07:54:41 51°16.266 2°54.257 3 19 5.8 100220 67
2007-02-09 07:54:46 51°16.265 2°54.257 2.4 307 5.8 100220 67
2007-02-09 07:54:51 51°16.264 2°54.259 2.4 265 5.8 100220 67
2007-02-09 07:54:56 51°16.263 2°54.261 2.5 303 5.8 100220 67
2007-02-09 07:55:00 51°16.261 2°54.263 2.4 252 5.8 100220 67
2007-02-09 07:55:05 51°16.26 2°54.267 2.6 310 5.8 100220 67
2007-02-09 07:55:10 51°16.259 2°54.271 2.9 247 5.8 100220 66
2007-02-09 07:55:15 51°16.257 2°54.275 2.3 306 5.8 100220 66
2007-02-09 07:55:19 51°16.257 2°54.279 2.6 20 5.8 100210 66
2007-02-09 07:55:24 51°16.256 2°54.284 2.9 308 5.8 100210 66
2007-02-09 07:55:29 51°16.255 2°54.288 2.7 22 5.8 100220 66
2007-02-09 07:55:34 51°16.254 2°54.293 2.4 304 5.8 100220 66
2007-02-09 07:55:38 51°16.254 2°54.296 2.7 25 5.8 100210 66
2007-02-09 07:55:44 51°16.253 2°54.3 2.1 308 5.8 100210 66
2007-02-09 07:55:49 51°16.253 2°54.302 2.3 20 5.8 100220 66
2007-02-09 07:55:54 51°16.252 2°54.304 2 305 5.8 100220 66
2007-02-09 07:55:58 51°16.252 2°54.304 1.9 252 5.8 100220 66
2007-02-09 07:56:04 51°16.251 2°54.304 2.3 308 5.8 100220 66
2007-02-09 07:56:09 51°16.251 2°54.304 2.3 252 5.8 100220 66
2007-02-09 07:56:14 51°16.25 2°54.304 2.1 305 5.8 100220 66
2007-02-09 07:56:18 51°16.25 2°54.304 2 253 5.8 100220 67
2007-02-09 07:56:24 51°16.25 2°54.304 2.1 308 5.8 100220 67
2007-02-09 07:56:29 51°16.249 2°54.304 2.2 252 5.8 100220 67
2007-02-09 07:56:33 51°16.249 2°54.304 2.4 304 5.8 100220 67
2007-02-09 07:56:39 51°16.248 2°54.305 2.1 250 5.8 100220 67
2007-02-09 07:56:44 51°16.248 2°54.305 2.3 309 5.8 100220 67
2007-02-09 07:56:49 51°16.248 2°54.305 2.1 255 5.8 100220 67
2007-02-09 07:56:54 51°16.247 2°54.305 2.6 311 5.8 100220 67
2007-02-09 07:56:58 51°16.247 2°54.305 1.9 254 5.8 100220 67
2007-02-09 07:57:04 51°16.247 2°54.305 2.7 308 5.8 100220 67
2007-02-09 07:57:08 51°16.246 2°54.305 2 258 5.8 100220 67
2007-02-09 07:57:14 51°16.246 2°54.305 2.3 303 5.8 100220 67
2007-02-09 07:57:18 51°16.245 2°54.305 1.9 258 5.8 100220 67
2007-02-09 07:57:24 51°16.245 2°54.305 2.2 305 5.8 100220 67
2007-02-09 07:57:29 51°16.244 2°54.305 1.9 256 5.8 100230 67
2007-02-09 07:57:34 51°16.244 2°54.305 2.2 311 5.8 100230 67
2007-02-09 07:57:38 51°16.244 2°54.306 2.4 257 5.8 100230 67
2007-02-09 07:57:44 51°16.243 2°54.306 2.4 303 5.8 100230 67
2007-02-09 07:57:49 51°16.243 2°54.306 2.3 257 5.8 100220 67
2007-02-09 07:57:54 51°16.242 2°54.306 2.1 309 5.8 100220 67
2007-02-09 07:57:58 51°16.242 2°54.306 1.8 258 5.8 100230 67
2007-02-09 07:58:04 51°16.242 2°54.306 2 304 5.8 100230 67
2007-02-09 07:58:09 51°16.241 2°54.306 2.2 258 5.8 100230 67
2007-02-09 07:58:14 51°16.241 2°54.306 2.1 306 5.8 100230 67
2007-02-09 07:58:19 51°16.24 2°54.306 2.6 256 5.8 100230 67
2007-02-09 07:58:24 51°16.24 2°54.306 1.6 306 5.8 100230 67
2007-02-09 07:58:28 51°16.239 2°54.307 2.3 256 5.8 100230 67
2007-02-09 07:58:34 51°16.239 2°54.307 1.7 304 5.8 100230 67
2007-02-09 07:58:38 51°16.239 2°54.307 2.3 257 5.8 100230 67
2007-02-09 07:58:44 51°16.238 2°54.307 1.6 304 5.8 100230 67
2007-02-09 07:58:49 51°16.238 2°54.307 2.1 257 5.8 100230 67
2007-02-09 07:58:53 51°16.237 2°54.307 2.1 311 5.8 100230 67
2007-02-09 07:58:59 51°16.236 2°54.308 1.8 256 5.8 100230 67
2007-02-09 07:59:04 51°16.236 2°54.308 1.6 305 5.8 100230 67
2007-02-09 07:59:09 51°16.236 2°54.308 1.6 256 5.8 100220 67
2007-02-09 07:59:14 51°16.235 2°54.308 1.4 303 5.8 100220 67
2007-02-09 07:59:18 51°16.235 2°54.308 1.9 255 5.8 100230 67
2007-02-09 07:59:24 51°16.234 2°54.308 1.4 305 5.8 100230 67
2007-02-09 07:59:28 51°16.234 2°54.308 1.4 257 5.8 100230 67
2007-02-09 07:59:34 51°16.233 2°54.309 1.3 278 5.8 100230 67
2007-02-09 07:59:38 51°16.233 2°54.309 1.1 257 5.8 100230 67
2007-02-09 07:59:44 51°16.233 2°54.309 1.1 308 5.8 100230 67
2007-02-09 07:59:49 51°16.232 2°54.309 1.2 257 5.8 100230 67
2007-02-09 07:59:54 51°16.232 2°54.309 1.3 308 5.8 100230 67
2007-02-09 07:59:58 51°16.231 2°54.31 1.4 260 5.8 100230 67
2007-02-09 08:00:04 51°16.231 2°54.31 1.1 309 5.8 100230 67
2007-02-09 08:00:09 51°16.23 2°54.31 1.5 254 5.8 100230 67
2007-02-09 08:00:14 51°16.23 2°54.31 1.3 310 5.8 100230 67
2007-02-09 08:00:18 51°16.229 2°54.31 1.4 257 5.8 100230 67
2007-02-09 08:00:24 51°16.229 2°54.311 1.2 305 5.8 100230 67
2007-02-09 08:00:29 51°16.228 2°54.311 1.3 257 5.8 100240 67
2007-02-09 08:00:34 51°16.228 2°54.311 1.1 304 5.8 100240 67
2007-02-09 08:00:39 51°16.228 2°54.312 1.5 255 5.8 100230 67
2007-02-09 08:00:44 51°16.227 2°54.312 1.4 305 5.8 100230 67
2007-02-09 08:00:48 51°16.227 2°54.312 1.5 257 5.8 100240 67
2007-02-09 08:00:54 51°16.227 2°54.313 1.6 304 5.8 100240 67
2007-02-09 08:00:58 51°16.226 2°54.313 1.2 256 5.8 100240 67
2007-02-09 08:01:04 51°16.225 2°54.314 1.4 305 5.8 100240 67
2007-02-09 08:01:09 51°16.225 2°54.314 1.4 257 5.8 100240 67
2007-02-09 08:01:13 51°16.224 2°54.314 1.4 306 5.8 100240 67
2007-02-09 08:01:19 51°16.224 2°54.315 1.1 253 5.8 100230 67
2007-02-09 08:01:24 51°16.223 2°54.315 1.2 304 5.8 100230 67
2007-02-09 08:01:28 51°16.223 2°54.315 1.4 259 5.8 100230 67
2007-02-09 08:01:34 51°16.222 2°54.316 1.3 310 5.8 100230 67
2007-02-09 08:01:38 51°16.222 2°54.316 1.2 255 5.8 100240 67
2007-02-09 08:01:44 51°16.221 2°54.317 1.3 310 5.8 100240 67
2007-02-09 08:01:49 51°16.221 2°54.318 1.4 253 5.8 100240 68
2007-02-09 08:01:53 51°16.22 2°54.32 1.1 311 5.8 100240 68
2007-02-09 08:01:58 51°16.22 2°54.322 1.5 261 5.8 100240 68
2007-02-09 08:02:04 51°16.219 2°54.324 1.2 304 5.8 100240 68
2007-02-09 08:02:09 51°16.218 2°54.327 1 260 5.8 100240 68
2007-02-09 08:02:14 51°16.216 2°54.329 1.1 304 5.8 100240 68
2007-02-09 08:02:18 51°16.215 2°54.332 0.9 259 5.8 100240 68
2007-02-09 08:02:24 51°16.213 2°54.335 0.8 311 5.8 100240 68
2007-02-09 08:02:28 51°16.212 2°54.337 0.8 258 5.8 100230 68
2007-02-09 08:02:33 51°16.21 2°54.34 0.7 304 5.8 100230 68
2007-02-09 08:02:39 51°16.207 2°54.344 0.8 266 5.8 100240 68
2007-02-09 08:02:44 51°16.205 2°54.347 0.5 306 5.8 100240 68
2007-02-09 08:02:48 51°16.203 2°54.349 0.7 270 5.8 100240 68
2007-02-09 08:02:54 51°16.199 2°54.351 0.5 49 5.8 100240 68
2007-02-09 08:02:58 51°16.197 2°54.354 0.7 21 5.8 100240 68
2007-02-09 08:03:04 51°16.193 2°54.355 0.5 58 5.8 100240 68
2007-02-09 08:03:09 51°16.19 2°54.357 0.5 27 5.8 100240 69
2007-02-09 08:03:13 51°16.187 2°54.357 0.3 58 5.8 100240 69
2007-02-09 08:03:18 51°16.183 2°54.358 0.3 25 5.8 100240 69
2007-02-09 08:03:24 51°16.179 2°54.358 0.3 26 5.8 100240 69
2007-02-09 08:03:29 51°16.175 2°54.358 0.2 21 5.8 100240 69
2007-02-09 08:03:33 51°16.172 2°54.357 0.2 20 5.8 100240 69
2007-02-09 08:03:39 51°16.167 2°54.356 0.5 18 5.8 100240 69
2007-02-09 08:03:44 51°16.163 2°54.354 1.1 21 5.8 100240 69
2007-02-09 08:03:49 51°16.16 2°54.352 1.2 19 5.8 100240 69
2007-02-09 08:03:53 51°16.157 2°54.35 1.1 11 5.8 100240 69
2007-02-09 08:03:58 51°16.153 2°54.347 1.3 14 5.8 100240 69
2007-02-09 08:04:04 51°16.148 2°54.343 1.2 4 5.8 100240 69
2007-02-09 08:04:09 51°16.145 2°54.339 1.2 358 5.8 100250 69
2007-02-09 08:04:13 51°16.142 2°54.336 1.3 1 5.8 100250 69
2007-02-09 08:04:18 51°16.139 2°54.332 1.3 353 5.8 100240 69
2007-02-09 08:04:24 51°16.135 2°54.326 1.3 6 5.8 100240 69
2007-02-09 08:04:29 51°16.132 2°54.321 1.7 9 5.8 100250 68
2007-02-09 08:04:33 51°16.13 2°54.317 1.6 360 5.8 100250 68
2007-02-09 08:04:37 51°16.128 2°54.311 1.8 359 5.8 100250 68
2007-02-09 08:04:44 51°16.124 2°54.302 2 357 5.8 100250 68
2007-02-09 08:04:49 51°16.122 2°54.294 2.4 359 5.8 100250 68
2007-02-09 08:04:54 51°16.119 2°54.286 2.5 357 5.8 100250 68
2007-02-09 08:04:58 51°16.118 2°54.278 2.2 346 5.8 100240 68
2007-02-09 08:05:04 51°16.116 2°54.267 2.8 353 5.8 100240 68
2007-02-09 08:05:08 51°16.115 2°54.26 2.7 348 5.8 100240 68
2007-02-09 08:05:14 51°16.115 2°54.248 2.5 347 5.8 100240 68
2007-02-09 08:05:18 51°16.115 2°54.24 2.7 344 5.8 100240 68
2007-02-09 08:05:24 51°16.116 2°54.226 3 338 5.8 100240 68
2007-02-09 08:05:29 51°16.117 2°54.214 3.5 339 5.8 100250 68
2007-02-09 08:05:33 51°16.119 2°54.202 4 339 5.8 100250 68
2007-02-09 08:05:39 51°16.122 2°54.183 4.5 339 5.8 100250 67
2007-02-09 08:05:44 51°16.124 2°54.164 4.6 338 5.8 100250 67
2007-02-09 08:05:49 51°16.125 2°54.143 5 338 5.8 100240 67
2007-02-09 08:05:53 51°16.126 2°54.124 6 339 5.8 100240 67
2007-02-09 08:05:58 51°16.127 2°54.101 6.4 337 5.8 100250 67
2007-02-09 08:06:04 51°16.127 2°54.07 5.9 335 5.8 100250 67
2007-02-09 08:06:09 51°16.127 2°54.044 6.2 337 5.8 100240 67
2007-02-09 08:06:13 51°16.126 2°54.022 6.2 338 5.8 100240 67
2007-02-09 08:06:18 51°16.125 2°53.995 6.5 338 5.8 100240 67
2007-02-09 08:06:24 51°16.123 2°53.961 6.8 337 5.8 100240 67
2007-02-09 08:06:29 51°16.121 2°53.932 6.6 336 5.8 100250 67
2007-02-09 08:06:34 51°16.119 2°53.903 6.9 338 5.8 100250 67
2007-02-09 08:06:38 51°16.118 2°53.879 7 336 5.8 100240 67
2007-02-09 08:06:44 51°16.115 2°53.842 7.4 339 5.8 100240 67
2007-02-09 08:06:48 51°16.113 2°53.819 7.2 336 5.8 100250 67
2007-02-09 08:06:53 51°16.111 2°53.788 7.3 335 5.8 100250 67
2007-02-09 08:06:59 51°16.109 2°53.751 7.7 336 5.8 100250 67
2007-02-09 08:07:04 51°16.106 2°53.721 7.5 337 5.8 100250 67
2007-02-09 08:07:09 51°16.104 2°53.69 7.4 336 5.8 100240 68
2007-02-09 08:07:14 51°16.102 2°53.659 7.2 336 5.8 100240 68
2007-02-09 08:07:18 51°16.1 2°53.635 6.9 337 5.8 100250 68
2007-02-09 08:07:24 51°16.098 2°53.598 6.7 337 5.8 100250 68
2007-02-09 08:07:28 51°16.096 2°53.573 7.3 337 5.8 100250 68
2007-02-09 08:07:34 51°16.094 2°53.535 7.5 335 5.8 100250 68
2007-02-09 08:07:39 51°16.092 2°53.505 7.9 336 5.8 100250 67
2007-02-09 08:07:44 51°16.09 2°53.474 7.1 336 5.8 100250 67
2007-02-09 08:07:48 51°16.089 2°53.449 7.2 336 5.8 100250 67
2007-02-09 08:07:54 51°16.086 2°53.412 7.4 338 5.8 100250 67
2007-02-09 08:07:58 51°16.085 2°53.387 7.4 335 5.8 100250 67
2007-02-09 08:08:04 51°16.083 2°53.349 7.4 335 5.8 100250 67
2007-02-09 08:08:08 51°16.081 2°53.325 7.5 336 5.8 100240 67
2007-02-09 08:08:13 51°16.079 2°53.293 7.8 336 5.8 100240 67
2007-02-09 08:08:19 51°16.078 2°53.256 7.9 336 5.8 100250 67
2007-02-09 08:08:24 51°16.075 2°53.225 7.4 336 5.8 100250 67
2007-02-09 08:08:29 51°16.075 2°53.194 7.6 337 5.8 100240 67
2007-02-09 08:08:34 51°16.072 2°53.163 7.4 337 5.8 100240 67
2007-02-09 08:08:38 51°16.072 2°53.138 7.4 336 5.8 100260 67
2007-02-09 08:08:44 51°16.07 2°53.1 7.7 337 5.8 100260 67
2007-02-09 08:08:49 51°16.069 2°53.069 7.7 332 5.8 100250 67
2007-02-09 08:08:53 51°16.067 2°53.044 7.5 335 5.8 100250 67
2007-02-09 08:08:58 51°16.067 2°53.013 7.7 334 5.8 100250 67
2007-02-09 08:09:04 51°16.065 2°52.975 7.8 334 5.8 100250 67
2007-02-09 08:09:09 51°16.063 2°52.944 7.3 335 5.8 100250 67
2007-02-09 08:09:13 51°16.063 2°52.919 7.4 334 5.8 100250 67
2007-02-09 08:09:18 51°16.061 2°52.887 7.9 335 5.8 100250 67
2007-02-09 08:09:24 51°16.06 2°52.85 7.2 334 5.8 100250 67
2007-02-09 08:09:28 51°16.059 2°52.825 7.8 335 5.8 100240 67
2007-02-09 08:09:34 51°16.057 2°52.787 7.8 279 5.8 100240 67
2007-02-09 08:09:37 51°16.056 2°52.768 6.9 333 5.8 100250 67
2007-02-09 08:09:44 51°16.053 2°52.724 7.5 333 5.8 100250 67
2007-02-09 08:09:49 51°16.052 2°52.693 7.5 335 5.8 100250 66
2007-02-09 08:09:54 51°16.05 2°52.662 7.1 335 5.8 100250 66
2007-02-09 08:09:58 51°16.048 2°52.637 7.3 334 5.8 100220 66
2007-02-09 08:10:04 51°16.046 2°52.599 7.3 335 5.8 100220 66
2007-02-09 08:10:09 51°16.044 2°52.568 7.1 332 5.8 100220 66
2007-02-09 08:10:14 51°16.043 2°52.536 7.6 335 5.8 100220 66
2007-02-09 08:10:18 51°16.041 2°52.511 7.1 337 5.8 100220 66
2007-02-09 08:10:24 51°16.039 2°52.473 7.6 336 5.8 100220 66
2007-02-09 08:10:29 51°16.038 2°52.442 7.4 336 5.9 100220 66
2007-02-09 08:10:33 51°16.036 2°52.417 7.3 336 5.9 100220 66
2007-02-09 08:10:39 51°16.035 2°52.379 6.7 335 5.8 100220 66
2007-02-09 08:10:44 51°16.034 2°52.347 6.7 337 5.8 100220 66
2007-02-09 08:10:49 51°16.032 2°52.316 6.9 335 5.8 100220 66
2007-02-09 08:10:53 51°16.031 2°52.291 7.5 337 5.8 100220 66
2007-02-09 08:10:58 51°16.03 2°52.26 7.2 336 5.8 100220 67
2007-02-09 08:11:03 51°16.028 2°52.228 7.4 338 5.8 100220 67
2007-02-09 08:11:09 51°16.027 2°52.191 6.7 333 5.8 100230 67
2007-02-09 08:11:13 51°16.026 2°52.166 7.1 336 5.8 100230 67
2007-02-09 08:11:19 51°16.024 2°52.128 6.6 334 5.9 100220 67
2007-02-09 08:11:24 51°16.023 2°52.097 7.8 336 5.9 100220 67
2007-02-09 08:11:29 51°16.022 2°52.065 7.2 335 5.8 100220 67
2007-02-09 08:11:33 51°16.021 2°52.04 6.8 335 5.8 100220 67
2007-02-09 08:11:39 51°16.019 2°52.003 6.9 334 5.8 100220 66
2007-02-09 08:11:44 51°16.018 2°51.971 7.3 334 5.8 100220 66
2007-02-09 08:11:49 51°16.017 2°51.94 7.4 335 5.8 100230 66
2007-02-09 08:11:54 51°16.016 2°51.909 6.7 335 5.8 100230 66
2007-02-09 08:11:58 51°16.015 2°51.884 7.5 336 5.8 100230 66
2007-02-09 08:12:04 51°16.013 2°51.846 7.5 336 5.8 100230 66
2007-02-09 08:12:08 51°16.012 2°51.821 7.4 334 5.9 100260 67
2007-02-09 08:12:14 51°16.011 2°51.783 7.2 333 5.9 100260 67
2007-02-09 08:12:19 51°16.009 2°51.752 6.8 335 5.8 100250 67
2007-02-09 08:12:24 51°16.008 2°51.72 6.8 334 5.8 100250 67
2007-02-09 08:12:28 51°16.007 2°51.695 7.4 334 5.8 100260 67
2007-02-09 08:12:34 51°16.005 2°51.658 7.3 286 5.8 100260 67
2007-02-09 08:12:38 51°16.004 2°51.633 7.5 334 5.8 100250 67
2007-02-09 08:12:44 51°16.002 2°51.595 8.1 338 5.8 100250 67
2007-02-09 08:12:48 51°16.001 2°51.57 7.5 335 5.8 100260 67
2007-02-09 08:12:53 51°16 2°51.539 7.6 336 5.8 100260 67
2007-02-09 08:12:58 51°15.999 2°51.507 7.8 334 5.9 100250 67
2007-02-09 08:13:04 51°15.997 2°51.47 7.6 337 5.9 100250 67
2007-02-09 08:13:09 51°15.996 2°51.439 7.7 333 5.9 100270 67
2007-02-09 08:13:14 51°15.995 2°51.407 7.5 338 5.9 100270 67
2007-02-09 08:13:18 51°15.993 2°51.382 7.2 335 5.9 100250 67
2007-02-09 08:13:24 51°15.992 2°51.345 7.2 337 5.9 100250 67
2007-02-09 08:13:28 51°15.991 2°51.32 7.6 336 5.8 100270 67
2007-02-09 08:13:33 51°15.989 2°51.288 7.3 337 5.8 100270 67
2007-02-09 08:13:38 51°15.988 2°51.257 8.1 336 5.9 100260 67
2007-02-09 08:13:44 51°15.986 2°51.219 8.3 339 5.9 100260 67
2007-02-09 08:13:49 51°15.984 2°51.188 8.4 335 5.9 100260 68
2007-02-09 08:13:54 51°15.983 2°51.156 7.5 335 5.9 100260 68
2007-02-09 08:13:58 51°15.982 2°51.131 8 337 5.9 100260 68
2007-02-09 08:14:04 51°15.981 2°51.093 7.6 335 5.9 100260 68
2007-02-09 08:14:09 51°15.981 2°51.062 7.4 336 5.9 100260 67
2007-02-09 08:14:14 51°15.982 2°51.03 7.1 334 5.9 100260 67
2007-02-09 08:14:18 51°15.983 2°51.005 7.5 337 5.9 100260 67
2007-02-09 08:14:24 51°15.986 2°50.968 7.7 335 5.9 100260 67
2007-02-09 08:14:29 51°15.988 2°50.937 7.9 335 5.9 100250 67
2007-02-09 08:14:34 51°15.99 2°50.906 7.9 336 5.9 100250 67
2007-02-09 08:14:37 51°15.992 2°50.887 7.9 336 5.8 100270 67
2007-02-09 08:14:44 51°15.996 2°50.844 7.8 336 5.8 100270 67
2007-02-09 08:14:49 51°15.999 2°50.813 7.7 334 5.9 100260 67
2007-02-09 08:14:53 51°16.001 2°50.788 7.7 336 5.9 100260 67
2007-02-09 08:14:59 51°16.005 2°50.751 8.1 335 5.9 100270 67
2007-02-09 08:15:04 51°16.007 2°50.72 7.8 335 5.9 100270 67
2007-02-09 08:15:09 51°16.01 2°50.689 7.6 335 5.9 100260 67
2007-02-09 08:15:13 51°16.012 2°50.664 7.5 336 5.9 100260 67
2007-02-09 08:15:18 51°16.016 2°50.634 7.8 336 5.9 100270 67
2007-02-09 08:15:24 51°16.019 2°50.597 8.1 337 5.9 100270 67
2007-02-09 08:15:29 51°16.022 2°50.566 7.6 338 5.8 100270 67
2007-02-09 08:15:33 51°16.024 2°50.541 7.1 337 5.8 100270 67
2007-02-09 08:15:37 51°16.026 2°50.517 7.6 339 5.9 100270 67
2007-02-09 08:15:44 51°16.03 2°50.474 7.5 338 5.9 100270 67
2007-02-09 08:15:49 51°16.033 2°50.443 7.8 338 5.8 100270 67
2007-02-09 08:15:53 51°16.035 2°50.419 7.6 338 5.8 100270 67
2007-02-09 08:15:59 51°16.039 2°50.382 7.7 338 5.9 100260 67
2007-02-09 08:16:04 51°16.042 2°50.352 7.8 339 5.9 100260 67
2007-02-09 08:16:09 51°16.044 2°50.321 8 337 5.9 100260 67
2007-02-09 08:16:14 51°16.048 2°50.29 7.5 338 5.9 100260 67
2007-02-09 08:16:18 51°16.05 2°50.265 7.8 336 5.9 100270 67
2007-02-09 08:16:24 51°16.054 2°50.229 7.8 337 5.9 100270 67
2007-02-09 08:16:28 51°16.056 2°50.204 8 338 5.9 100260 68
2007-02-09 08:16:34 51°16.059 2°50.167 6.5 336 5.9 100260 68
2007-02-09 08:16:39 51°16.063 2°50.136 7.3 337 5.9 100260 67
2007-02-09 08:16:44 51°16.066 2°50.105 7.2 336 5.9 100260 67
2007-02-09 08:16:48 51°16.068 2°50.081 7.5 338 5.9 100260 67
2007-02-09 08:16:54 51°16.072 2°50.043 6.9 336 5.9 100260 67
2007-02-09 08:16:58 51°16.074 2°50.018 7 336 5.9 100270 67
2007-02-09 08:17:04 51°16.078 2°49.981 8 338 5.9 100270 67
2007-02-09 08:17:08 51°16.081 2°49.956 7.7 336 5.9 100260 67
2007-02-09 08:17:13 51°16.084 2°49.925 7.7 339 5.9 100260 67
2007-02-09 08:17:19 51°16.088 2°49.887 7.9 338 5.9 100270 67
2007-02-09 08:17:24 51°16.091 2°49.857 7.4 337 5.9 100270 67
2007-02-09 08:17:29 51°16.094 2°49.825 7.6 337 5.9 100270 67
2007-02-09 08:17:34 51°16.097 2°49.794 7.9 337 5.9 100270 67
2007-02-09 08:17:38 51°16.099 2°49.769 8.1 338 5.9 100230 67
2007-02-09 08:17:44 51°16.103 2°49.732 7.9 336 5.9 100230 67
2007-02-09 08:17:48 51°16.106 2°49.707 7.6 338 5.9 100260 68
2007-02-09 08:17:53 51°16.109 2°49.676 7.7 336 5.9 100260 68
2007-02-09 08:17:58 51°16.112 2°49.645 7.7 338 5.9 100270 68
2007-02-09 08:18:04 51°16.115 2°49.607 7.7 337 5.9 100270 68
2007-02-09 08:18:09 51°16.118 2°49.576 7.5 338 5.9 100260 68
2007-02-09 08:18:14 51°16.121 2°49.545 7.8 336 5.9 100260 68
2007-02-09 08:18:18 51°16.123 2°49.52 7.2 336 5.9 100260 68
2007-02-09 08:18:24 51°16.126 2°49.482 7.6 337 5.9 100260 68
2007-02-09 08:18:28 51°16.128 2°49.457 7.3 336 5.9 100260 68
2007-02-09 08:18:33 51°16.131 2°49.426 7.5 337 5.9 100260 68
2007-02-09 08:18:39 51°16.134 2°49.389 7.5 337 5.9 100240 68
2007-02-09 08:18:44 51°16.137 2°49.357 7.9 337 5.9 100240 68
2007-02-09 08:18:48 51°16.139 2°49.332 7.8 338 5.9 100230 68
2007-02-09 08:18:54 51°16.143 2°49.295 7.2 337 5.9 100230 68
2007-02-09 08:18:58 51°16.145 2°49.27 8 338 5.9 100230 68
2007-02-09 08:19:04 51°16.148 2°49.232 7.1 339 5.9 100230 68
2007-02-09 08:19:09 51°16.151 2°49.201 7.4 336 5.9 100230 68
2007-02-09 08:19:14 51°16.153 2°49.17 7.1 337 5.9 100230 68
2007-02-09 08:19:18 51°16.155 2°49.145 7.5 337 5.9 100240 68
2007-02-09 08:19:24 51°16.156 2°49.107 7.4 338 5.9 100240 68
2007-02-09 08:19:29 51°16.156 2°49.076 7.4 336 5.9 100230 68
2007-02-09 08:19:33 51°16.156 2°49.051 7 338 5.9 100230 68
2007-02-09 08:19:39 51°16.156 2°49.013 7.4 339 5.9 100240 68
2007-02-09 08:19:44 51°16.155 2°48.981 6.6 338 5.9 100240 68
2007-02-09 08:19:49 51°16.155 2°48.95 6.9 338 5.9 100230 68
2007-02-09 08:19:53 51°16.153 2°48.924 7 337 5.9 100230 68
2007-02-09 08:19:58 51°16.152 2°48.893 7 337 5.9 100230 68
2007-02-09 08:20:04 51°16.146 2°48.856 6.9 338 5.9 100230 68
2007-02-09 08:20:09 51°16.142 2°48.825 6.9 339 5.9 100250 68
2007-02-09 08:20:13 51°16.138 2°48.804 5.8 339 5.9 100250 68
2007-02-09 08:20:18 51°16.133 2°48.778 5.3 339 5.9 100230 68
2007-02-09 08:20:24 51°16.126 2°48.75 5 340 5.9 100230 68
2007-02-09 08:20:29 51°16.12 2°48.73 4.3 340 5.9 100230 68
2007-02-09 08:20:33 51°16.115 2°48.716 3.1 282 5.9 100230 68
2007-02-09 08:20:39 51°16.107 2°48.697 2.8 340 5.9 100270 68
2007-02-09 08:20:44 51°16.099 2°48.685 2.2 334 5.9 100270 68
2007-02-09 08:20:49 51°16.092 2°48.674 1.9 339 5.9 100270 68
2007-02-09 08:20:54 51°16.084 2°48.665 2 339 5.9 100270 68
2007-02-09 08:20:59 51°16.076 2°48.657 1.8 336 5.9 100270 67
2007-02-09 08:21:04 51°16.068 2°48.651 1.6 327 5.9 100270 67
2007-02-09 08:21:08 51°16.063 2°48.646 1.7 339 5.9 100280 67
2007-02-09 08:21:14 51°16.054 2°48.639 1.5 345 5.9 100280 67
2007-02-09 08:21:18 51°16.049 2°48.633 1.4 339 5.9 100270 67
2007-02-09 08:21:24 51°16.04 2°48.625 1.2 344 5.9 100270 67
2007-02-09 08:21:28 51°16.036 2°48.619 1.3 351 5.9 100270 67
2007-02-09 08:21:33 51°16.029 2°48.612 1.4 283 5.9 100270 67
2007-02-09 08:21:39 51°16.022 2°48.603 1.2 343 5.9 100280 67
2007-02-09 08:21:44 51°16.016 2°48.595 1.2 346 5.9 100280 67
2007-02-09 08:21:49 51°16.011 2°48.587 1.2 349 5.9 100280 67
2007-02-09 08:21:54 51°16.006 2°48.579 1.4 357 5.9 100280 67
2007-02-09 08:21:58 51°16.002 2°48.572 1.3 346 5.9 100270 67
2007-02-09 08:22:04 51°15.997 2°48.562 1.6 354 5.9 100270 67
2007-02-09 08:22:08 51°15.994 2°48.555 1.4 349 5.9 100280 67
2007-02-09 08:22:13 51°15.99 2°48.547 1.6 355 5.9 100280 67
2007-02-09 08:22:18 51°15.987 2°48.538 1.6 358 5.9 100270 67
2007-02-09 08:22:24 51°15.983 2°48.527 1.5 348 5.9 100270 67
2007-02-09 08:22:29 51°15.98 2°48.518 1.8 356 5.9 100280 67
2007-02-09 08:22:34 51°15.978 2°48.51 1.6 356 5.9 100280 67
2007-02-09 08:22:38 51°15.976 2°48.502 1.6 353 6 100280 67
2007-02-09 08:22:44 51°15.973 2°48.492 2 351 6 100280 67
2007-02-09 08:22:48 51°15.971 2°48.485 1.7 357 6 100280 67
2007-02-09 08:22:53 51°15.97 2°48.475 1.7 357 6 100280 67
2007-02-09 08:22:59 51°15.967 2°48.465 1.8 358 6 100280 68
2007-02-09 08:23:04 51°15.966 2°48.456 1.9 357 6 100280 68
2007-02-09 08:23:08 51°15.964 2°48.449 2.1 360 6 100290 68
2007-02-09 08:23:14 51°15.962 2°48.439 1.9 355 6 100290 68
2007-02-09 08:23:18 51°15.96 2°48.432 2.1 356 6 100280 68
2007-02-09 08:23:24 51°15.958 2°48.422 1.8 358 6 100280 68
2007-02-09 08:23:28 51°15.957 2°48.415 1.9 358 6 100280 68
2007-02-09 08:23:33 51°15.955 2°48.406 1.9 357 6 100280 68
2007-02-09 08:23:39 51°15.953 2°48.396 2 356 6 100280 68
2007-02-09 08:23:44 51°15.951 2°48.387 2.1 358 6 100280 68
2007-02-09 08:23:48 51°15.95 2°48.38 1.8 358 6 100280 68
2007-02-09 08:23:54 51°15.948 2°48.37 1.7 360 6 100280 68
2007-02-09 08:23:58 51°15.946 2°48.363 1.6 360 6 100280 68
2007-02-09 08:24:04 51°15.944 2°48.353 1.5 359 6 100280 68
2007-02-09 08:24:08 51°15.943 2°48.346 1.8 359 6 100280 69
2007-02-09 08:24:13 51°15.941 2°48.337 1.7 -999 6 100280 69
2007-02-09 08:24:19 51°15.939 2°48.327 1.7 358 6 100280 69
2007-02-09 08:24:24 51°15.936 2°48.318 1.8 1 6 100280 69
2007-02-09 08:24:29 51°15.935 2°48.31 1.7 356 6 100280 69
2007-02-09 08:24:34 51°15.933 2°48.302 1.6 358 6 100280 69
2007-02-09 08:24:38 51°15.931 2°48.294 1.9 360 6 100280 69
2007-02-09 08:24:44 51°15.929 2°48.285 1.9 6 6 100280 69
2007-02-09 08:24:49 51°15.927 2°48.276 1.5 358 6 100290 68
2007-02-09 08:24:53 51°15.925 2°48.27 1.5 4 6 100290 68
2007-02-09 08:24:58 51°15.923 2°48.261 1.3 4 6 100290 68
2007-02-09 08:25:04 51°15.92 2°48.252 1.2 4 6 100290 68
2007-02-09 08:25:09 51°15.918 2°48.243 1.5 3 6 100280 68
2007-02-09 08:25:14 51°15.915 2°48.235 1.5 5 6 100280 68
2007-02-09 08:25:18 51°15.913 2°48.229 1.5 6 6 100280 68
2007-02-09 08:25:24 51°15.911 2°48.219 1.3 7 6 100280 68
2007-02-09 08:25:29 51°15.908 2°48.211 1.4 10 6 100290 69
2007-02-09 08:25:34 51°15.906 2°48.203 1.3 9 6 100290 69
2007-02-09 08:25:37 51°15.905 2°48.199 1.3 13 6 100280 68
2007-02-09 08:25:44 51°15.901 2°48.188 1 5 6 100280 68
2007-02-09 08:25:49 51°15.899 2°48.18 1.3 8 6 100290 68
2007-02-09 08:25:54 51°15.896 2°48.173 1.1 3 6 100290 68
2007-02-09 08:25:59 51°15.894 2°48.166 1.1 11 6 100290 68
2007-02-09 08:26:04 51°15.891 2°48.158 1.2 2 6 100290 68
2007-02-09 08:26:09 51°15.888 2°48.151 1.4 11 6 100290 68
2007-02-09 08:26:13 51°15.886 2°48.145 1 6 6 100290 68
2007-02-09 08:26:19 51°15.883 2°48.136 1.2 8 6 100290 68
2007-02-09 08:26:24 51°15.88 2°48.129 1.1 9 6 100290 68
2007-02-09 08:26:29 51°15.878 2°48.122 1.2 4 6 100290 68
2007-02-09 08:26:34 51°15.875 2°48.114 1.2 4 6 100290 68
2007-02-09 08:26:38 51°15.873 2°48.108 1 351 6 100290 68
2007-02-09 08:26:44 51°15.869 2°48.1 1.3 352 6 100290 68
2007-02-09 08:26:48 51°15.867 2°48.094 1.5 5 6 100280 68
2007-02-09 08:26:53 51°15.864 2°48.087 1.2 359 6 100280 68
2007-02-09 08:26:58 51°15.861 2°48.079 1.7 357 6 100290 68
2007-02-09 08:27:04 51°15.858 2°48.072 1.3 1 6 100290 68
2007-02-09 08:27:09 51°15.855 2°48.064 1.3 356 6 100290 69
2007-02-09 08:27:14 51°15.852 2°48.057 1.2 6 6 100290 69
2007-02-09 08:27:18 51°15.85 2°48.052 1.5 4 6 100280 69
2007-02-09 08:27:24 51°15.846 2°48.043 1.6 4 6 100280 69
2007-02-09 08:27:28 51°15.844 2°48.038 1 351 6 100290 68
2007-02-09 08:27:34 51°15.84 2°48.029 1.3 1 6 100290 68
2007-02-09 08:27:39 51°15.837 2°48.022 1.6 7 6 100290 68
2007-02-09 08:27:44 51°15.834 2°48.015 1.3 7 6 100290 68
2007-02-09 08:27:49 51°15.832 2°48.008 1.3 3 6 100290 68
2007-02-09 08:27:54 51°15.829 2°48.001 1.3 2 6 100290 68
2007-02-09 08:27:58 51°15.827 2°47.995 1.3 6 6 100290 68
2007-02-09 08:28:04 51°15.823 2°47.987 1.3 3 6 100290 68
2007-02-09 08:28:08 51°15.821 2°47.981 1.4 1 6 100290 68
2007-02-09 08:28:14 51°15.817 2°47.972 1.3 7 6 100290 68
2007-02-09 08:28:19 51°15.814 2°47.965 1.3 5 6 100290 68
2007-02-09 08:28:24 51°15.812 2°47.958 1.4 7 6 100290 68
2007-02-09 08:28:29 51°15.809 2°47.951 1.4 2 6 100290 68
2007-02-09 08:28:34 51°15.806 2°47.943 1.2 7 6 100290 68
2007-02-09 08:28:38 51°15.804 2°47.938 1.4 9 6 100290 68
2007-02-09 08:28:44 51°15.801 2°47.929 1.2 9 6 100290 68
2007-02-09 08:28:48 51°15.799 2°47.923 1.2 9 6 100290 68
2007-02-09 08:28:53 51°15.796 2°47.916 1.1 4 6 100290 68
2007-02-09 08:28:58 51°15.793 2°47.908 1.2 11 6 100290 68
2007-02-09 08:29:04 51°15.79 2°47.899 1.3 11 6 100290 68
2007-02-09 08:29:09 51°15.788 2°47.892 1.1 13 6 100290 68
2007-02-09 08:29:14 51°15.786 2°47.884 1.2 6 6 100290 68
2007-02-09 08:29:18 51°15.783 2°47.878 1.1 8 6 100300 68
2007-02-09 08:29:24 51°15.781 2°47.869 1.2 8 6 100300 68
2007-02-09 08:29:29 51°15.778 2°47.861 1.2 10 6 100290 68
2007-02-09 08:29:34 51°15.775 2°47.854 1.1 4 6 100290 68
2007-02-09 08:29:37 51°15.774 2°47.849 1.4 7 6 100290 68
2007-02-09 08:29:44 51°15.77 2°47.839 1.4 9 6 100290 68
2007-02-09 08:29:49 51°15.767 2°47.832 1.3 6 6.1 100300 68
2007-02-09 08:29:54 51°15.765 2°47.825 1.3 16 6.1 100300 68
2007-02-09 08:29:58 51°15.762 2°47.818 1.4 23 6 100290 68
2007-02-09 08:30:04 51°15.759 2°47.81 1.2 11 6 100290 68
2007-02-09 08:30:09 51°15.757 2°47.802 1.4 13 6 100300 69
2007-02-09 08:30:14 51°15.754 2°47.795 1.4 11 6 100300 69
2007-02-09 08:30:18 51°15.753 2°47.789 1.3 10 6 100290 68
2007-02-09 08:30:24 51°15.75 2°47.78 1.2 9 6 100290 68
2007-02-09 08:30:29 51°15.748 2°47.773 1.3 12 6 100300 68
2007-02-09 08:30:34 51°15.745 2°47.765 1.6 12 6 100300 68
2007-02-09 08:30:37 51°15.743 2°47.761 1.6 10 6 100290 68
2007-02-09 08:30:44 51°15.74 2°47.75 1.3 14 6 100290 68
2007-02-09 08:30:49 51°15.738 2°47.743 1.5 10 6 100290 68
2007-02-09 08:30:53 51°15.735 2°47.737 1.2 9 6 100290 68
2007-02-09 08:30:59 51°15.733 2°47.728 1.5 16 6.1 100290 68
2007-02-09 08:31:04 51°15.73 2°47.72 1.5 7 6.1 100290 68
2007-02-09 08:31:09 51°15.727 2°47.713 1.3 12 6 100290 68
2007-02-09 08:31:13 51°15.726 2°47.707 1.3 9 6 100290 68
2007-02-09 08:31:19 51°15.723 2°47.698 1.4 4 6 100290 68
2007-02-09 08:31:24 51°15.72 2°47.691 1 5 6 100290 68
2007-02-09 08:31:29 51°15.717 2°47.684 1.3 359 6 100300 68
2007-02-09 08:31:33 51°15.715 2°47.678 1.3 359 6 100300 68
2007-02-09 08:31:39 51°15.712 2°47.669 1.2 355 6 100300 68
2007-02-09 08:31:44 51°15.709 2°47.661 1.2 2 6 100300 68
2007-02-09 08:31:49 51°15.707 2°47.654 1.2 8 6 100300 68
2007-02-09 08:31:54 51°15.704 2°47.646 1.1 358 6 100300 68
2007-02-09 08:31:58 51°15.702 2°47.64 1.1 360 6 100300 68
2007-02-09 08:32:04 51°15.699 2°47.631 1.3 5 6 100300 68
2007-02-09 08:32:08 51°15.697 2°47.625 1.1 2 6.1 100300 68
2007-02-09 08:32:14 51°15.694 2°47.616 1.2 6 6.1 100300 68
2007-02-09 08:32:19 51°15.691 2°47.609 1 359 6.1 100290 68
2007-02-09 08:32:24 51°15.689 2°47.601 1.1 3 6.1 100290 68
2007-02-09 08:32:28 51°15.687 2°47.595 1.2 1 6.1 100290 68
2007-02-09 08:32:34 51°15.684 2°47.586 1.3 1 6.1 100290 68
2007-02-09 08:32:38 51°15.682 2°47.58 1.1 5 6.1 100290 68
2007-02-09 08:32:44 51°15.679 2°47.571 1.1 352 6.1 100290 68
2007-02-09 08:32:48 51°15.677 2°47.565 1.3 5 6.1 100300 68
2007-02-09 08:32:54 51°15.674 2°47.556 1 6 6.1 100300 68
2007-02-09 08:32:59 51°15.671 2°47.549 1.2 3 6.1 100300 68
2007-02-09 08:33:04 51°15.668 2°47.542 0.9 5 6.1 100300 68
2007-02-09 08:33:09 51°15.666 2°47.535 1 5 6.1 100300 68
2007-02-09 08:33:14 51°15.663 2°47.527 1.1 360 6.1 100300 68
2007-02-09 08:33:18 51°15.661 2°47.522 1 356 6.1 100300 68
2007-02-09 08:33:24 51°15.658 2°47.513 1.2 12 6.1 100300 68
2007-02-09 08:33:28 51°15.656 2°47.507 1 9 6.1 100300 67
2007-02-09 08:33:33 51°15.653 2°47.5 1.1 12 6.1 100300 67
2007-02-09 08:33:39 51°15.649 2°47.492 0.8 10 6.1 100300 68
2007-02-09 08:33:44 51°15.647 2°47.485 1 11 6.1 100300 68
2007-02-09 08:33:49 51°15.644 2°47.478 0.9 11 6.1 100300 68
2007-02-09 08:33:54 51°15.641 2°47.47 1.1 11 6.1 100300 68
2007-02-09 08:33:58 51°15.639 2°47.465 1.1 13 6.1 100300 68
2007-02-09 08:34:04 51°15.635 2°47.456 1 8 6.1 100300 68
2007-02-09 08:34:08 51°15.633 2°47.45 1.2 5 6.1 100290 68
2007-02-09 08:34:13 51°15.63 2°47.443 1.3 23 6.1 100290 68
2007-02-09 08:34:19 51°15.627 2°47.435 1 12 6.1 100300 68
2007-02-09 08:34:24 51°15.624 2°47.427 1 18 6.1 100300 68
2007-02-09 08:34:29 51°15.622 2°47.42 1.1 13 6.1 100300 68
2007-02-09 08:34:34 51°15.619 2°47.413 0.8 11 6.1 100300 68
2007-02-09 08:34:38 51°15.617 2°47.407 1 360 6.1 100300 68
2007-02-09 08:34:44 51°15.613 2°47.399 1.2 357 6.1 100300 68
2007-02-09 08:34:49 51°15.61 2°47.392 0.8 346 6.1 100300 68